Hourly Data Report for October 08, 2016

All times are specified in Local Standard Time (LST). Add 1 hour to adjust for Daylight Saving Time where and when it is observed.

TORONTO INTL A
ONTARIO

43°40'36.000" N
79°37'50.000" W
173.40 m
6158731
71624
YYZ

Download Data

Hourly Data (October 2016)
Hourly Data Report for October 8, 2016
Temp Definition
°C
Dew Point Temp Definition
°C
Rel Hum Definition
%
Wind Dir Definition
10's deg

Wind Spd Definition
km/h
Visibility Definition
km
Stn Press Definition
kPa
Hmdx Definition


Wind Chill Definition


Weather Definition


TIME
00:00 Legend Double Dagger 17.5 13.7 78 22 3 24.1 99.44     LegendNANA
01:00 Legend Double Dagger 16.9 14.6 86 27 5 24.1 99.42     Mainly Clear
02:00 Legend Double Dagger 17.7 15.9 89 28 7 24.1 99.44     LegendNANA
03:00 Legend Double Dagger 18.2 17.1 93 23 9 24.1 99.43     LegendNANA
04:00 Legend Double Dagger 18.1 15.9 87 29 12 24.1 99.44     Mostly Cloudy
05:00 Legend Double Dagger 16.2 14.1 87 35 24 24.1 99.46     LegendNANA
06:00 Legend Double Dagger 15.2 14.1 93 32 22 24.1 99.51     Rain Showers
07:00 Legend Double Dagger 13.8 12.9 94 31 19 24.1 99.58     Rain Showers
08:00 Legend Double Dagger 13.7 11.1 84 32 21 24.1 99.67     LegendNANA
09:00 Legend Double Dagger 14.9 9.7 71 32 27 24.1 99.68     LegendNANA
10:00 Legend Double Dagger 15.6 9.3 66 32 23 24.1 99.65     Mostly Cloudy
11:00 Legend Double Dagger 16.7 8.7 59 26 22 24.1 99.66     LegendNANA
12:00 Legend Double Dagger 16.9 7.6 54 25 31 24.1 99.66     LegendNANA
13:00 Legend Double Dagger 17.0 6.3 49 28 30 24.1 99.61     Mostly Cloudy
14:00 Legend Double Dagger 16.7 5.7 48 27 32 24.1 99.60     LegendNANA
15:00 Legend Double Dagger 15.2 4.6 49 28 32 24.1 99.65     LegendNANA
16:00 Legend Double Dagger 14.9 3.2 45 29 30 24.1 99.70     Mostly Cloudy
17:00 Legend Double Dagger 13.0 3.7 53 29 30 24.1 99.80     LegendNANA
18:00 Legend Double Dagger 12.1 2.9 53 29 29 24.1 99.87     LegendNANA
19:00 Legend Double Dagger 11.7 3.0 55 30 34 24.1 99.95     Mostly Cloudy
20:00 Legend Double Dagger 10.9 3.5 60 31 27 24.1 100.03     LegendNANA
21:00 Legend Double Dagger 10.2 3.5 63 29 19 24.1 100.09     LegendNANA
22:00 Legend Double Dagger 9.0 3.9 70 28 15 24.1 100.12     Clear
23:00 Legend Double Dagger 8.4 4.1 74 28 16 24.1 100.10     LegendNANA

Notes on Data Quality.

Legend

  • E = Estimated
  • M = Missing
  • NA = Not Available
  • ‡ = Partner data that is not subject to review by the National Climate Archives
Date modified: